Location: Blackwater Beach
(38.5801°N, 75.1577°W)
Time: 17:42:25
(UTC+00:00)

Cosmos 2297 Rocket - Visible Passes

Search period start: 17 May 2026 00:00
Search period end: 27 May 2026 00:00
Orbit: 840 x 841 km, 71.0° (Epoch: 17 May)

Date Brightness Start Highest point End Pass type
(mag) Time Alt. Az. Time Alt. Az. Time Alt. Az.
17 May 2.7 04:17:40 55° NNE 04:17:40 55° NNE 04:22:02 10° NNE visible
17 May 4.4 05:59:24 13° WNW 06:01:09 14° NW 06:04:06 10° NNW visible
18 May 2.6 04:02:02 58° NE 04:02:02 58° NE 04:06:33 10° NNE visible
18 May 4.4 05:43:46 13° WNW 05:45:36 15° NW 05:48:47 10° NNW visible
19 May 2.4 03:46:21 61° NE 03:46:21 61° NE 03:51:03 10° NNE visible
19 May 4.4 05:28:05 14° WNW 05:30:04 16° NW 05:33:27 10° NNW visible
20 May 2.3 03:30:36 65° ENE 03:30:36 65° ENE 03:35:34 10° NNE visible
20 May 4.4 05:12:20 14° WNW 05:14:32 17° NW 05:18:07 10° NNW visible
21 May 2.1 03:14:44 67° E 03:14:44 67° E 03:20:04 10° NNE visible
21 May 4.4 04:56:28 14° W 04:58:59 18° NW 05:02:45 10° N visible
22 May 2.1 02:58:47 63° ESE 02:58:58 64° ESE 03:04:34 10° NNE visible
22 May 4.4 04:40:30 13° W 04:43:28 19° NW 04:47:23 10° N visible
23 May 2.2 02:42:42 54° SE 02:43:30 60° ESE 02:49:03 10° NNE visible
23 May 4.4 04:24:23 12° W 04:27:56 20° NW 04:32:00 10° N visible
24 May 2.2 02:26:24 41° SSE 02:28:02 56° ESE 02:33:32 10° NNE visible
24 May 4.3 04:08:13 10° WSW 04:12:24 21° NW 04:16:37 10° N visible
25 May 2.3 02:09:52 29° SSE 02:12:33 52° ESE 02:18:01 10° NNE visible
25 May 4.3 03:52:33 10° WSW 03:56:52 22° NW 04:01:14 10° N visible
26 May 2.4 01:52:58 17° S 01:57:05 49° ESE 02:02:30 10° NE visible
26 May 4.3 03:36:54 10° WSW 03:41:21 23° NW 03:45:49 10° N visible
